TOURFACTS.DK  
Stats and Facts from Tour de France.

Tour de France 2017 starts in 2 days
  Riders   Stages   Teams   Summits   Yearly  


 
Search by year

 After:  2016 - Stage 21:
  14626 starters.
  5126 different riders.
  634 teams.
  2211 stages.
  454 restdays.
  436049.60 km.
  5622 abandonnees.


Top 3
Christopher Froome89:04:48
Romain Bardet89:08:53
Nairo Quintana89:09:09
Rafal Majka209 pt.
Thomas De Gendt130 pt.
Jarlinson Pantano ..121 pt.
Peter Sagan470 pt.
Marcel Kittel228 pt.
Michael Matthews199 pt.
Adam Yates89:09:30
Louis Meintjes89:11:46
Emanuel Buchmann89:52:28
Facts from Tour de France 2015
  |   Stages.  |   Stage winners.  |   Days in yellow  |   Average speed.  |   Route.  |   Teams.  |   All riders.  |   Rookies.  |   Withdrawls.  |  

  |   GC.  |   Polka  |   Green  |   White  |   Summits. (In tour)  |   Summits. (Points)  |   Miscellaneous.  |  

Stage 14 on 18 - 07 - 2015
         Owning:    Christopher Froome      Christopher Froome      Peter Sagan      Nairo Quintana  

Pick a stage:  1 2 3 4 5 6 7 8 10 11 12 13 14 15 16 17 18 19 20 21
  RodezMende | Dist: 178.50 km.
Cat: 4Côte de Pont-de-SalarsPOLBartosz Huzarski1 points 
Cat: 2Côte de SauveterreFRAMatthieu Ladagnous5 points 
Cat: 4Côte de ChabritsSVNKristjan Koren1 points 
Cat: 2Côte de Croix NeuveFRAThibaut Pinot5 points 

Average speed for all riders in stage:  38,919 km./hr.
    Place:Name:Team:Time:Km/h:
ENGStephen CummingsZAFMTN - Qhubeka P/B Samsung04:23:43  +  00:00:00=40,612 
FRAThibaut PinotFRAFDJ04:23:45  +  00:00:02=40,607 
FRARomain BardetFRAAg2r La Mondiale04:23:46  +  00:00:03=40,604 
4 COLRigoberto UranBELEtixx - Quick Step04:24:03  +  00:00:20=40,561 
5 SVKPeter SaganRUSTinkoff Saxo04:24:12  +  00:00:29=40,537 
6 FRACyril GautierFRATeam Europcar04:24:15  +  00:00:32=40,530 
7 ESPRubén PlazaITALampre-Merida04:24:15  +  00:00:32=40,530 
8 LUXBob JungelsUSATrek Factory Racing04:24:15  +  00:00:32=40,530 
9 ESPJonathan CastroviejoESPMovistar Team04:24:15  +  00:00:32=40,530 
10 ENGSimon YatesAUSOrica - GreenEDGE04:24:16  +  00:00:33=40,527 
11 BELJan BakelantsFRAAg2r La Mondiale04:24:50  +  00:01:07=40,441 
12 COLJarlinson Pantano GomezCHEIAM Cycling04:24:53  +  00:01:10=40,433 
13 FRAPierre-Luc PérichonFRABretagne - Séché Environnement04:25:43  +  00:02:00=40,306 
14 SVNKristjan KorenUSATeam Cannondale - Garmin04:25:55  +  00:02:12=40,276 
15 NLDKoen De KortDEUTeam Giant Alpecin04:25:55  +  00:02:12=40,276 
16 BELGreg Van AvermaetUSABMC Racing Team04:25:55  +  00:02:12=40,276 
17 UKRAndriy GrivkoKAZAstana Pro Team04:26:26  +  00:02:43=40,198 
18 POLMichal GolasBELEtixx - Quick Step04:27:08  +  00:03:25=40,092 
19 FRAJérémy RoyFRAFDJ04:27:08  +  00:03:25=40,092 
20 KENChristopher FroomeGBRSky Procycling04:27:58  +  00:04:15=39,968 
21 COLNairo QuintanaESPMovistar Team04:27:59  +  00:04:16=39,965 
22 ESPAlejandro ValverdeESPMovistar Team04:28:02  +  00:04:19=39,958 
23 ESPAlberto ContadorRUSTinkoff Saxo04:28:17  +  00:04:34=39,920 
24 ITAVincenzo NibaliKAZAstana Pro Team04:28:28  +  00:04:45=39,893 
25 USATejay Van GarderenUSABMC Racing Team04:28:38  +  00:04:55=39,868 
26 NLDRobert GesinkNLDTeam Lotto NL - Jumbo04:28:49  +  00:05:06=39,841 
27 FRATony GallopinBELLotto Soudal04:28:49  +  00:05:06=39,841 
28 FRAPierre RollandFRATeam Europcar04:28:49  +  00:05:06=39,841 
29 NLDBauke MollemaUSATrek Factory Racing04:28:49  +  00:05:06=39,841 
30 WALGeraint ThomasGBRSky Procycling04:28:49  +  00:05:06=39,841 
31 CHESteve MorabitoFRAFDJ04:28:49  +  00:05:06=39,841 
32 FRAMatthieu LadagnousFRAFDJ04:28:49  +  00:05:06=39,841 
33 ITAMichele ScarponiKAZAstana Pro Team04:28:49  +  00:05:06=39,841 
34 ESPSamuel SanchezUSABMC Racing Team04:29:05  +  00:05:22=39,802 
35 FRAWarren BarguilDEUTeam Giant Alpecin04:29:08  +  00:05:25=39,794 
36 USRTanel KangertKAZAstana Pro Team04:29:08  +  00:05:25=39,794 
37 USAAndrew TalanskyUSATeam Cannondale - Garmin04:30:09  +  00:06:26=39,645 
38 FRAAlexis VuillermozFRAAg2r La Mondiale04:30:09  +  00:06:26=39,645 
39 ERIDaniel TeklehaimanotZAFMTN - Qhubeka P/B Samsung04:30:09  +  00:06:26=39,645 
40 ESPDaniel NavarroFRACofidis – Solutions Crédits04:30:09  +  00:06:26=39,645 
41 ESPLuis Angel MateFRACofidis – Solutions Crédits04:30:09  +  00:06:26=39,645 
42 NLDSteven KruijswijkNLDTeam Lotto NL - Jumbo04:30:09  +  00:06:26=39,645 
43 FRAMickaël CherelFRAAg2r La Mondiale04:30:33  +  00:06:50=39,586 
44 CZERoman KreuzigerRUSTinkoff Saxo04:31:04  +  00:07:21=39,511 
45 CZEJan BártaDEUBora-Argon 1804:31:04  +  00:07:21=39,511 
46 FRABrice FeilluFRABretagne - Séché Environnement04:31:04  +  00:07:21=39,511 
47 DNKLars BakBELLotto Soudal04:31:04  +  00:07:21=39,511 
48 NLDStef ClementCHEIAM Cycling04:31:16  +  00:07:33=39,481 
49 FRANicolas RocheGBRSky Procycling04:31:16  +  00:07:33=39,481 
50 ITADamiano CarusoUSABMC Racing Team04:31:41  +  00:07:58=39,421 
51 BELSerge PauwelsZAFMTN - Qhubeka P/B Samsung04:31:41  +  00:07:58=39,421 
52 ESPHaimar ZubeldiaUSATrek Factory Racing04:31:52  +  00:08:09=39,394 
53 POLRafal MajkaRUSTinkoff Saxo04:32:15  +  00:08:32=39,339 
54 FRAChristophe RiblonFRAAg2r La Mondiale04:32:27  +  00:08:44=39,310 
55 FRASylvain ChavanelCHEIAM Cycling04:32:27  +  00:08:44=39,310 
56 NLDLaurens ten DamNLDTeam Lotto NL - Jumbo04:32:27  +  00:08:44=39,310 
57 FRAPierrick FédrigoFRABretagne - Séché Environnement04:32:54  +  00:09:11=39,245 
58 CHEDanilo WyssUSABMC Racing Team04:33:27  +  00:09:44=39,166 
59 PRTTiago PintoRUSTeam Katusha04:33:27  +  00:09:44=39,166 
60 CHEMartin ElmigerCHEIAM Cycling04:33:27  +  00:09:44=39,166 
61 CHEMichael SchärUSABMC Racing Team04:33:27  +  00:09:44=39,166 
62 CHEMarcel WyssCHEIAM Cycling04:33:27  +  00:09:44=39,166 
63 AUSMichael RogersRUSTinkoff Saxo04:33:27  +  00:09:44=39,166 
64 DEUSimon GeschkeDEUTeam Giant Alpecin04:33:27  +  00:09:44=39,166 
65 NLDWilco KeldermanNLDTeam Lotto NL - Jumbo04:33:27  +  00:09:44=39,166 
66 DEUPaul MartensNLDTeam Lotto NL - Jumbo04:33:27  +  00:09:44=39,166 
67 AUSAdam HansenBELLotto Soudal04:33:27  +  00:09:44=39,166 
68 CHEReto HollensteinCHEIAM Cycling04:33:27  +  00:09:44=39,166 
69 CHEJakob FuglsangKAZAstana Pro Team04:33:27  +  00:09:44=39,166 
70 NLDBram TankinkNLDTeam Lotto NL - Jumbo04:33:52  +  00:10:09=39,107 
71 FRANicolas EdetFRACofidis – Solutions Crédits04:33:52  +  00:10:09=39,107 
72 FRARomain SicardFRATeam Europcar04:34:06  +  00:10:23=39,073 
73 ESPRafael Valls FerriITALampre-Merida04:34:43  +  00:11:00=38,986 
74 HRVKristijan DurasekITALampre-Merida04:34:43  +  00:11:00=38,986 
75 ENGAdam YatesAUSOrica - GreenEDGE04:34:43  +  00:11:00=38,986 
76 FRAJérôme CoppelCHEIAM Cycling04:35:14  +  00:11:31=38,912 
77 FRAArmindo FonsecaFRABretagne - Séché Environnement04:35:25  +  00:11:42=38,887 
78 FRAAnthony DelaplaceFRABretagne - Séché Environnement04:35:25  +  00:11:42=38,887 
79 BELThomas De GendtBELLotto Soudal04:35:38  +  00:11:55=38,856 
80 CZELeopold KönigGBRSky Procycling04:35:55  +  00:12:12=38,816 
81 NLDWout PoelsGBRSky Procycling04:36:02  +  00:12:19=38,800 
82 ERIMerhawi GhebremedhinZAFMTN - Qhubeka P/B Samsung04:36:22  +  00:12:39=38,753 
83 DEUEmanuel BuchmannDEUBora-Argon 1804:36:22  +  00:12:39=38,753 
84 BELJens DebusschereBELLotto Soudal04:36:22  +  00:12:39=38,753 
85 FRAPerrig QuemeneurFRATeam Europcar04:36:22  +  00:12:39=38,753 
86 ESPJoaquim RodriguezRUSTeam Katusha04:36:22  +  00:12:39=38,753 
87 ESPAlberto LosadaRUSTeam Katusha04:36:22  +  00:12:39=38,753 
88 FRAJean-Christophe PeraudFRAAg2r La Mondiale04:36:22  +  00:12:39=38,753 
89 NLDJos Van EmdenNLDTeam Lotto NL - Jumbo04:36:22  +  00:12:39=38,753 
90 NLDRoy CurversDEUTeam Giant Alpecin04:36:22  +  00:12:39=38,753 
91 ITAGiampaolo CarusoRUSTeam Katusha04:36:22  +  00:12:39=38,753 
92 NLDLieuwe WestraKAZAstana Pro Team04:36:22  +  00:12:39=38,753 
93 PRTNelson OliveiraITALampre-Merida04:36:22  +  00:12:39=38,753 
94 PRTJosé João PimentaDEUBora-Argon 1804:36:22  +  00:12:39=38,753 
95 ESPGorka Izaguirre InsaustiESPMovistar Team04:36:22  +  00:12:39=38,753 
96 FRAAngelo TulikFRATeam Europcar04:36:26  +  00:12:43=38,744 
97 CHEGregory RastUSATrek Factory Racing04:36:56  +  00:13:13=38,674 
98 ESPMarkel IrizarUSATrek Factory Racing04:36:56  +  00:13:13=38,674 
99 COLJulián ArredondoUSATrek Factory Racing04:36:56  +  00:13:13=38,674 
100 BELStijn DevolderUSATrek Factory Racing04:36:56  +  00:13:13=38,674 
101 AUSRohan DennisUSABMC Racing Team04:37:24  +  00:13:41=38,609 
102 FRAFlorian SénéchalFRACofidis – Solutions Crédits04:37:30  +  00:13:47=38,595 
103 ITAManuel QuinziatoUSABMC Racing Team04:37:30  +  00:13:47=38,595 
104 COLWinner AnaconaESPMovistar Team04:37:32  +  00:13:49=38,590 
105 FRAAlexandre GeniezFRAFDJ04:38:01  +  00:14:18=38,523 
106 ENGIan StannardGBRSky Procycling04:38:01  +  00:14:18=38,523 
107 AUSNathan HaasUSATeam Cannondale - Garmin04:38:55  +  00:15:12=38,399 
108 AUSMichael MatthewsAUSOrica - GreenEDGE04:38:55  +  00:15:12=38,399 
109 ZAFJacques Janse Van RensburgZAFMTN - Qhubeka P/B Samsung04:38:55  +  00:15:12=38,399 
110 ITAMatteo BonoITALampre-Merida04:38:55  +  00:15:12=38,399 
111 ITAAdriano MaloriESPMovistar Team04:38:55  +  00:15:12=38,399 
112 FRAArnaud GérardFRABretagne - Séché Environnement04:38:55  +  00:15:12=38,399 
113 FRAFlorian VachonFRABretagne - Séché Environnement04:38:55  +  00:15:12=38,399 
114 FRAThomas VoecklerFRATeam Europcar04:38:55  +  00:15:12=38,399 
115 FRAJulien SimonFRACofidis – Solutions Crédits04:38:55  +  00:15:12=38,399 
116 COLJosé SerpaITALampre-Merida04:38:55  +  00:15:12=38,399 
117 ZAFReinardt Janse Van RensburgZAFMTN - Qhubeka P/B Samsung04:38:55  +  00:15:12=38,399 
118 AUTGeorg PreidlerDEUTeam Giant Alpecin04:38:55  +  00:15:12=38,399 
119 FRAFrédéric BrunFRABretagne - Séché Environnement04:38:55  +  00:15:12=38,399 
120 FRAGeoffrey SoupeFRACofidis – Solutions Crédits04:38:55  +  00:15:12=38,399 
121 FRABenoit VaugrenardFRAFDJ04:38:55  +  00:15:12=38,399 
122 AUSLuke DurbridgeAUSOrica - GreenEDGE04:38:55  +  00:15:12=38,399 
123 FRAYohann GèneFRATeam Europcar04:38:55  +  00:15:12=38,399 
124 CANRyder HesjedalUSATeam Cannondale - Garmin04:38:55  +  00:15:12=38,399 
125 CANSvein TuftAUSOrica - GreenEDGE04:38:55  +  00:15:12=38,399 
126 NLDPieter WeeningAUSOrica - GreenEDGE04:38:55  +  00:15:12=38,399 
127 FRAArnaud DémareFRAFDJ04:38:55  +  00:15:12=38,399 
128 ITAMatteo TosattoRUSTinkoff Saxo04:39:04  +  00:15:21=38,378 
129 ITADaniel OssUSABMC Racing Team04:39:04  +  00:15:21=38,378 
130 ITAFilippo PozzatoITALampre-Merida04:39:04  +  00:15:21=38,378 
131 LUXLaurent DidierUSATrek Factory Racing04:39:08  +  00:15:25=38,369 
132 FRABryan CoquardFRATeam Europcar04:39:35  +  00:15:52=38,307 
133 FRADamien GaudinFRAAg2r La Mondiale04:39:35  +  00:15:52=38,307 
134 CZEZdenek StybarBELEtixx - Quick Step04:39:54  +  00:16:11=38,264 
135 BELJulien VermoteBELEtixx - Quick Step04:39:54  +  00:16:11=38,264 
136 ZAFLouis MeintjesZAFMTN - Qhubeka P/B Samsung04:39:54  +  00:16:11=38,264 
137 KAZDmitriy GruzdevKAZAstana Pro Team04:39:54  +  00:16:11=38,264 
138 NLDTom LeezerNLDTeam Lotto NL - Jumbo04:39:54  +  00:16:11=38,264 
139 BELKenneth VanbilsenFRACofidis – Solutions Crédits04:40:03  +  00:16:20=38,243 
140 WALLuke RoweGBRSky Procycling04:40:03  +  00:16:20=38,243 
141 NLDAlbert TimmerDEUTeam Giant Alpecin04:40:23  +  00:16:40=38,198 
142 DEUJohn DegenkolbDEUTeam Giant Alpecin04:40:23  +  00:16:40=38,198 
143 FRAChristophe LaporteFRACofidis – Solutions Crédits04:40:23  +  00:16:40=38,198 
144 ESPJosé Herrada LópezESPMovistar Team04:40:29  +  00:16:46=38,184 
145 ITADavide CimolaiITALampre-Merida04:40:44  +  00:17:01=38,150 
146 AUSMark RenshawBELEtixx - Quick Step04:40:57  +  00:17:14=38,121 
147 IMNMark CavendishBELEtixx - Quick Step04:40:57  +  00:17:14=38,121 
148 POLMichal KwiatkowskiBELEtixx - Quick Step04:42:29  +  00:18:46=37,914 
149 ITAMatteo TrentinBELEtixx - Quick Step04:42:29  +  00:18:46=37,914 
150 FRABryan NauleauFRATeam Europcar04:42:29  +  00:18:46=37,914 
151 DEUPaul VossDEUBora-Argon 1804:42:29  +  00:18:46=37,914 
152 DNKMichael ValgrenRUSTinkoff Saxo04:42:29  +  00:18:46=37,914 
153 AUTMatthias BrändleCHEIAM Cycling04:42:31  +  00:18:48=37,909 
154 NLDDylan Van BaarleUSATeam Cannondale - Garmin04:42:52  +  00:19:09=37,862 
155 NLDSebastian LangeveldUSATeam Cannondale - Garmin04:42:52  +  00:19:09=37,862 
156 AUSRichie PorteGBRSky Procycling04:42:52  +  00:19:09=37,862 
157 FRASébastien ChavanelFRAFDJ04:42:52  +  00:19:09=37,862 
158 ESPImanol ErvitiESPMovistar Team04:42:52  +  00:19:09=37,862 
159 USATyler FarrarZAFMTN - Qhubeka P/B Samsung04:42:52  +  00:19:09=37,862 
160 ENGDaniel MartinUSATeam Cannondale - Garmin04:42:52  +  00:19:09=37,862 
161 AUTMarco HallerRUSTeam Katusha04:42:59  +  00:19:16=37,847 
162 BELSep VanmarckeNLDTeam Lotto NL - Jumbo04:43:07  +  00:19:24=37,829 
163 NORAlexander KristoffRUSTeam Katusha04:43:07  +  00:19:24=37,829 
164 NOREdvald Boasson HagenZAFMTN - Qhubeka P/B Samsung04:43:07  +  00:19:24=37,829 
165 ITAJacopo GuarnieriRUSTeam Katusha04:43:07  +  00:19:24=37,829 
166 USRRamunas NavardauskasUSATeam Cannondale - Garmin04:43:07  +  00:19:24=37,829 
167 DEUAndré GreipelBELLotto Soudal04:43:07  +  00:19:24=37,829 
168 DEUMarcel SiebergBELLotto Soudal04:44:00  +  00:20:17=37,711 
169 BELTim WellensBELLotto Soudal04:44:00  +  00:20:17=37,711 
170 POLBartosz HuzarskiDEUBora-Argon 1804:44:00  +  00:20:17=37,711 
171 BELSam BennettDEUBora-Argon 1804:44:00  +  00:20:17=37,711 
172 IMNPeter KennaughGBRSky Procycling04:44:39  +  00:20:56=37,625 

Withdrawls: 3
 
Rider
Team
Reason
27  CHESteve MorabitoFRAFDJDid not finish
88  NLDRamon SinkeldamDEUTeam Giant AlpecinDid not finish
201  ARGEduardo SepulvedaFRABretagne - Séché EnvironnementDisqualified

Todays birthdays.

1888  René Etien
1891  Arturo Ferrario
1913  Léon Theerlynck
1921  Roger Piel
1929  Antonio Ferraz
1930  Rizzardo Brenioli
1934  Orphée Meneghini
1943  Pietro Guerra
1961  Marc Somers
1964  Ettore Badolato
1967  Miguel Angel Martinez
1968  Davide Bramati
1981  Vasil Kiryienka